LUCH-5X (OLYMP-K 2)

Last updated on Wed Jul 09 2025 00:02:48 GMT+0000 (Coordinated Universal Time)

1 55841U 23031A 25189.72665549 .00000049 00000+0 00000+0 0 9992 2 55841 0.0215 92.5200 0001743 213.5829 304.3959 1.00271834 8485
UTC large
Height (km)
Speed (km/s)
/
Latitude / Longitude
Inclination (degrees)
Orbital Period (minutes)
Azimuth
Elevation
Range (km)
Doppler Factor

Next 0 passes for location: London (51.5072 / 0.1276)

Sorry there are no passes over London.